SWISSCUBE (35932 NORAD) Tracking and Keplerian Element Data

This shows tracking and keplerian element data for the satellite.

Feedback or suggestion? Click here.




ElementValue
Catalog35932
NameSWISSCUBE
Epoch Orbit57233
Epoch Day186.39248224
Epoch Year2020
RAAN9.2196
Inclination98.6106
Eccentricity0.0008817
Argument of Perigee77.5769
Mean Anonmoly282.6414
Mean Motion14.56403326
Decay Rate8E-07
L11 35932U 09051B 20186.39248224 .00000080 00000-0 29134-4 0 9999
L22 35932 98.6106 9.2196 0008817 77.5769 282.6414 14.56403326572337

Live tracking and technical data element details for SWISSCUBE (NORAD 35932). SWISSCUBE can be tracked NOW for your location showing map with azimuth and elevation plus other details from your city location.

Track the satellite on the map from your city or location and see movement details for azimuth, elevation, latitude, longitude, range, height, and movement on the map or in text.







IsCatalogInMostPopularTable: catalog: 35932, numindb: 630
Update: records affected: 1



GetName: 35932 SWISSCUBE

Hit Count: updated at: Sun, 05 Jul 2020 16:55:07 GMT